Time,TemperatureF,DewpointF,PressureIn,WindDirection,WindDirectionDegrees,WindSpeedMPH,WindSpeedGustMPH,Humidity,HourlyPrecipIn,Conditions,Clouds,dailyrainin,SolarRadiationWatts/m^2,SoftwareType,DateUTC
2013-10-22 00:04:00,61.0,60.0,-100.00,East,88,1.0,4.0,98,0.00,,,0.00,0.000000,,2013-10-22 05:04:00,
2013-10-22 00:43:00,61.0,61.0,-100.00,NNW,327,0.0,3.0,99,0.00,,,0.00,0.000000,,2013-10-22 05:43:00,
2013-10-22 00:52:00,61.0,61.0,-100.00,NNW,327,0.0,3.0,99,0.00,,,0.00,0.000000,,2013-10-22 05:52:00,
2013-10-22 01:02:00,61.0,61.0,-100.00,NNW,327,0.0,3.0,99,0.00,,,0.00,0.000000,,2013-10-22 06:02:00,
2013-10-22 01:43:00,61.0,61.0,-100.00,NW,321,1.0,3.0,99,0.00,,,0.00,0.000000,,2013-10-22 06:43:00,
2013-10-22 01:54:00,61.0,61.0,-100.00,NW,321,1.0,3.0,99,0.00,,,0.00,0.000000,,2013-10-22 06:54:00,
2013-10-22 02:02:00,61.0,61.0,-100.00,NW,321,1.0,3.0,99,0.00,,,0.00,0.000000,,2013-10-22 07:02:00,
2013-10-22 02:42:00,61.0,61.0,-100.00,North,355,1.0,3.0,99,0.00,,,0.00,0.000000,,2013-10-22 07:42:00,
2013-10-22 02:52:00,61.0,61.0,-100.00,North,355,1.0,3.0,99,0.00,,,0.00,0.000000,,2013-10-22 07:52:00,
2013-10-22 03:02:00,61.0,61.0,-100.00,North,355,1.0,3.0,99,0.00,,,0.00,0.000000,,2013-10-22 08:02:00,
2013-10-22 03:42:00,61.0,61.0,-100.00,South,190,0.0,3.0,99,0.00,,,0.00,0.000000,,2013-10-22 08:42:00,
2013-10-22 03:52:00,61.0,61.0,-100.00,South,190,0.0,3.0,99,0.00,,,0.00,0.000000,,2013-10-22 08:52:00,
2013-10-22 04:02:00,61.0,61.0,-100.00,South,190,0.0,3.0,99,0.00,,,0.00,0.000000,,2013-10-22 09:02:00,
2013-10-22 04:43:00,60.0,60.0,-100.00,NNW,334,2.0,4.0,99,0.00,,,0.00,0.000000,,2013-10-22 09:43:00,
2013-10-22 04:54:00,60.0,60.0,-100.00,NNW,334,2.0,4.0,99,0.00,,,0.00,0.000000,,2013-10-22 09:54:00,
2013-10-22 05:03:00,60.0,60.0,-100.00,NNW,334,2.0,4.0,99,0.00,,,0.00,0.000000,,2013-10-22 10:03:00,
2013-10-22 05:43:00,60.0,60.0,-100.00,North,7,2.0,5.0,99,0.00,,,0.00,0.000000,,2013-10-22 10:43:00,
2013-10-22 05:53:00,60.0,60.0,-100.00,North,7,2.0,5.0,99,0.00,,,0.00,0.000000,,2013-10-22 10:53:00,
2013-10-22 06:03:00,60.0,60.0,-100.00,North,7,2.0,5.0,99,0.00,,,0.00,0.000000,,2013-10-22 11:03:00,
2013-10-22 06:42:00,60.0,60.0,-100.00,NNW,334,3.0,5.0,99,0.00,,,0.00,0.000000,,2013-10-22 11:42:00,
2013-10-22 06:53:00,60.0,60.0,-100.00,NNW,334,3.0,5.0,99,0.00,,,0.00,0.000000,,2013-10-22 11:53:00,
2013-10-22 07:01:00,60.0,60.0,-100.00,NNW,334,3.0,5.0,99,0.00,,,0.00,0.000000,,2013-10-22 12:01:00,
2013-10-22 07:42:00,59.0,59.0,-100.00,North,353,1.0,5.0,99,0.00,,,0.00,0.000000,,2013-10-22 12:42:00,
2013-10-22 07:52:00,59.0,59.0,-100.00,North,353,1.0,5.0,99,0.00,,,0.00,0.000000,,2013-10-22 12:52:00,
2013-10-22 08:01:00,59.0,59.0,-100.00,North,353,1.0,5.0,99,0.00,,,0.00,0.000000,,2013-10-22 13:01:00,
2013-10-22 08:42:00,59.0,59.0,-100.00,NNW,333,2.0,4.0,99,0.00,,,0.00,23.000000,,2013-10-22 13:42:00,
2013-10-22 08:53:00,59.0,59.0,-100.00,NNW,333,2.0,4.0,99,0.00,,,0.00,23.000000,,2013-10-22 13:53:00,
2013-10-22 09:02:00,59.0,59.0,-100.00,NNW,333,2.0,4.0,99,0.00,,,0.00,23.000000,,2013-10-22 14:02:00,
2013-10-22 09:42:00,67.0,62.0,-100.00,North,6,4.0,7.0,85,0.00,,,0.00,221.000000,,2013-10-22 14:42:00,
2013-10-22 09:52:00,67.0,62.0,-100.00,North,6,4.0,7.0,85,0.00,,,0.00,221.000000,,2013-10-22 14:52:00,
2013-10-22 10:01:00,67.0,62.0,-100.00,North,6,4.0,7.0,85,0.00,,,0.00,221.000000,,2013-10-22 15:01:00,
2013-10-22 10:43:00,71.0,62.0,-100.00,NNW,347,5.0,11.0,72,0.00,,,0.00,374.000000,,2013-10-22 15:43:00,
2013-10-22 10:54:00,71.0,62.0,-100.00,NNW,347,5.0,11.0,72,0.00,,,0.00,374.000000,,2013-10-22 15:54:00,
2013-10-22 11:04:00,71.0,62.0,-100.00,NNW,347,5.0,11.0,72,0.00,,,0.00,374.000000,,2013-10-22 16:04:00,
2013-10-22 11:43:00,73.0,61.0,-100.00,North,354,7.0,14.0,65,0.00,,,0.00,498.000000,,2013-10-22 16:43:00,
2013-10-22 11:53:00,73.0,61.0,-100.00,North,354,7.0,14.0,65,0.00,,,0.00,498.000000,,2013-10-22 16:53:00,
2013-10-22 12:03:00,73.0,61.0,-100.00,North,354,7.0,14.0,65,0.00,,,0.00,498.000000,,2013-10-22 17:03:00,
2013-10-22 12:43:00,75.0,60.0,-100.00,NNW,331,7.0,17.0,59,0.00,,,0.00,628.000000,,2013-10-22 17:43:00,
2013-10-22 12:52:00,75.0,60.0,-100.00,NNW,331,7.0,17.0,59,0.00,,,0.00,628.000000,,2013-10-22 17:52:00,
2013-10-22 13:02:00,75.0,60.0,-100.00,NNW,331,7.0,17.0,59,0.00,,,0.00,628.000000,,2013-10-22 18:02:00,
2013-10-22 13:42:00,76.0,60.0,-100.00,NNW,342,6.0,13.0,57,0.00,,,0.00,666.000000,,2013-10-22 18:42:00,
2013-10-22 13:52:00,76.0,60.0,-100.00,NNW,342,6.0,13.0,57,0.00,,,0.00,666.000000,,2013-10-22 18:52:00,
2013-10-22 14:02:00,76.0,60.0,-100.00,NNW,342,6.0,13.0,57,0.00,,,0.00,666.000000,,2013-10-22 19:02:00,
2013-10-22 14:42:00,78.0,59.0,-100.00,NW,324,6.0,13.0,53,0.00,,,0.00,594.000000,,2013-10-22 19:42:00,
2013-10-22 14:53:00,78.0,59.0,-100.00,NW,324,6.0,13.0,53,0.00,,,0.00,594.000000,,2013-10-22 19:53:00,
2013-10-22 15:02:00,78.0,59.0,-100.00,NW,324,6.0,13.0,53,0.00,,,0.00,594.000000,,2013-10-22 20:02:00,
2013-10-22 15:43:00,72.0,59.0,-100.00,NW,312,9.0,15.0,64,0.00,,,0.00,269.000000,,2013-10-22 20:43:00,
2013-10-22 15:52:00,72.0,59.0,-100.00,NW,312,9.0,15.0,64,0.00,,,0.00,269.000000,,2013-10-22 20:52:00,
2013-10-22 16:02:00,72.0,59.0,-100.00,NW,312,9.0,15.0,64,0.00,,,0.00,269.000000,,2013-10-22 21:02:00,
2013-10-22 16:44:00,72.0,59.0,-100.00,NW,319,9.0,17.0,64,0.00,,,0.00,311.000000,,2013-10-22 21:44:00,
2013-10-22 16:54:00,72.0,59.0,-100.00,NW,319,9.0,17.0,64,0.00,,,0.00,311.000000,,2013-10-22 21:54:00,
2013-10-22 17:04:00,72.0,59.0,-100.00,NW,319,9.0,17.0,64,0.00,,,0.00,311.000000,,2013-10-22 22:04:00,
2013-10-22 17:44:00,68.0,59.0,-100.00,NW,326,8.0,15.0,72,0.00,,,0.00,245.000000,,2013-10-22 22:44:00,
2013-10-22 17:54:00,68.0,59.0,-100.00,NW,326,8.0,15.0,72,0.00,,,0.00,245.000000,,2013-10-22 22:54:00,
2013-10-22 18:03:00,68.0,59.0,-100.00,NW,326,8.0,15.0,72,0.00,,,0.00,245.000000,,2013-10-22 23:03:00,
2013-10-22 18:43:00,66.0,58.0,-100.00,NW,320,7.0,13.0,75,0.00,,,0.00,37.000000,,2013-10-22 23:43:00,
2013-10-22 18:53:00,66.0,58.0,-100.00,NW,320,7.0,13.0,75,0.00,,,0.00,37.000000,,2013-10-22 23:53:00,
2013-10-22 19:02:00,66.0,58.0,-100.00,NW,320,7.0,13.0,75,0.00,,,0.00,37.000000,,2013-10-23 00:02:00,
2013-10-22 19:42:00,63.0,57.0,-100.00,NW,305,3.0,12.0,82,0.00,,,0.00,2.000000,,2013-10-23 00:42:00,
2013-10-22 19:52:00,63.0,57.0,-100.00,NW,305,3.0,12.0,82,0.00,,,0.00,2.000000,,2013-10-23 00:52:00,
2013-10-22 20:02:00,63.0,57.0,-100.00,NW,305,3.0,12.0,82,0.00,,,0.00,2.000000,,2013-10-23 01:02:00,
2013-10-22 20:42:00,58.0,56.0,-100.00,West,281,3.0,5.0,93,0.00,,,0.00,0.000000,,2013-10-23 01:42:00,
2013-10-22 20:52:00,58.0,56.0,-100.00,West,281,3.0,5.0,93,0.00,,,0.00,0.000000,,2013-10-23 01:52:00,
2013-10-22 21:02:00,58.0,56.0,-100.00,West,281,3.0,5.0,93,0.00,,,0.00,0.000000,,2013-10-23 02:02:00,
2013-10-22 21:42:00,57.0,55.0,-100.00,WNW,285,1.0,5.0,94,0.00,,,0.00,0.000000,,2013-10-23 02:42:00,
2013-10-22 21:54:00,57.0,55.0,-100.00,WNW,285,1.0,5.0,94,0.00,,,0.00,0.000000,,2013-10-23 02:54:00,
2013-10-22 22:02:00,57.0,55.0,-100.00,WNW,285,1.0,5.0,94,0.00,,,0.00,0.000000,,2013-10-23 03:02:00,
2013-10-22 22:44:00,54.0,54.0,-100.00,WNW,288,0.0,3.0,99,0.00,,,0.00,0.000000,,2013-10-23 03:44:00,
2013-10-22 22:55:00,54.0,54.0,-100.00,WNW,288,0.0,3.0,99,0.00,,,0.00,0.000000,,2013-10-23 03:55:00,
2013-10-22 23:04:00,54.0,54.0,-100.00,WNW,288,0.0,3.0,99,0.00,,,0.00,0.000000,,2013-10-23 04:04:00,
2013-10-22 23:45:00,54.0,54.0,-100.00,WNW,288,1.0,5.0,100,0.00,,,0.00,0.000000,,2013-10-23 04:45:00,
2013-10-22 23:55:00,54.0,54.0,-100.00,WNW,288,1.0,5.0,100,0.00,,,0.00,0.000000,,2013-10-23 04:55:00,